Skip Page Navigation
NASA JPL Caltech
NASA Logo - Jet Propulsion Laboratory + View the NASA Portal
+ Center for Near-Earth Object Studies
JPL Home Earth Solar System Stars & Galaxies Technology
JPL Solar System Dynamics
BODIES ORBITS EPHEMERIDES TOOLS PHYSICAL DATA DISCOVERY FAQ SITE MAP
JPL Small-Body Database Browser
Search: [ help ]  
233400 (2006 FK37)
Classification: Main-belt Asteroid          SPK-ID: 2233400
Ephemeris | Orbit Diagram | Orbital Elements | Mission Design | Physical Parameters | Discovery Circumstances | Close-Approach Data ]

[ show orbit diagram ]
Orbital Elements at Epoch 2459200.5 (2020-Dec-17.0) TDB
Reference: JPL 17 (heliocentric ecliptic J2000)
 Element Value Uncertainty (1-sigma)   Units 
e .1908288155930425 3.1221e-08  
a 2.663462688737475 1.5238e-08 au
q 2.155197258469442 8.1302e-08 au
i 11.14672503556185 6.819e-06 deg
node 357.4612549650064 1.8636e-05 deg
peri 296.0567620756246 2.7129e-05 deg
M 67.07810197196476 1.7953e-05 deg
tp 2458904.667000115090
(2020-Feb-25.16700011)
7.9426e-05 TDB
period 1587.699663939198
4.35
1.3626e-05
3.731e-08
d
yr
n .2267431354786672 1.9459e-09 deg/d
Q 3.171728119005507 1.8146e-08 au
  Orbit Determination Parameters
   # obs. used (total)      607  
   data-arc span      6307 days (17.27 yr)  
   first obs. used      2003-09-30  
   last obs. used      2021-01-05  
   planetary ephem.      DE431  
   SB-pert. ephem.      SB431-N16  
   condition code      0  
   norm. resid. RMS      .47636  
   source      ORB  
   producer      Otto Matic  
   solution date      2021-Feb-24 13:23:27  

Additional Information
 Earth MOID = 1.16515 au 
 Jupiter MOID = 2.17023 au 
 T_jup = 3.332 
[ hide covariance matrix ]
Orbital Elements at Epoch 2458013.5 (2017-Sep-17.0) TDB
Reference: JPL 17 (heliocentric ecliptic J2000)
 Element Value Uncertainty (1-sigma)   Units 
e .1906975820483681 3.1188e-08  
q 2.155983791234936 8.1316e-08 au
tp 2457317.723281037063
(2015-Oct-22.22328104)
8.2532e-05 TDB
node 357.5131989955624 1.8637e-05 deg
peri 296.2897400616772 2.7161e-05 deg
i 11.14541788621456 6.8194e-06 deg
  Orbit Determination Parameters
   # obs. used (total)      607  
   data-arc span      6307 days (17.27 yr)  
   first obs. used      2003-09-30  
   last obs. used      2021-01-05  
   planetary ephem.      DE431  
   SB-pert. ephem.      SB431-N16  
   condition code      0  
   norm. resid. RMS      .47636  
   source      ORB  
   producer      Otto Matic  
   solution date      2021-Feb-24 13:23:27  

Additional Information
 Jupiter MOID = 2.17023 au 
 T_jup = 3.332 
Orbit Covariance (6×6)
  e q tp node peri i
e 9.727203881766929E-16 -2.507788265305924E-15 5.736054146740555E-13 2.84973180310236E-15 1.204066992551446E-13 6.388375282462366E-16
q -2.507788265305924E-15 6.612314204375983E-15 -1.832871344502684E-12 -7.006617976720059E-15 -3.794064303247898E-13 -4.679835662514404E-16
tp 5.736054146740555E-13 -1.832871344502684E-12 6.811609780545976E-9 9.722469522163819E-12 1.636457537600037E-9 3.754999491648868E-12
node 2.84973180310236E-15 -7.006617976720059E-15 9.722469522163819E-12 3.473240788659262E-10 -3.37715325559256E-10 4.834143674872742E-11
peri 1.204066992551446E-13 -3.794064303247898E-13 1.636457537600037E-9 -3.37715325559256E-10 7.377029024663287E-10 -4.625770298904562E-11
i 6.388375282462366E-16 -4.679835662514404E-16 3.754999491648868E-12 4.834143674872742E-11 -4.625770298904562E-11 4.650444552585286E-11

Ephemeris | Orbit Diagram | Orbital Elements | Mission Design | Physical Parameters | Discovery Circumstances | Close-Approach Data ]

Physical Parameter Table
Parameter Symbol Value Units Sigma Reference Notes
absolute magnitude H 15.67   n/a E2021B55  
diameter diameter 4.246 km 0.118 urn:nasa:pds:neowise_diameters_albedos::2.0[mainbelt] (http://adsabs.harvard.edu/abs/2011ApJ...741...68M)  
geometric albedo albedo 0.074   0.016 urn:nasa:pds:neowise_diameters_albedos::2.0[mainbelt] (http://adsabs.harvard.edu/abs/2011ApJ...741...68M)  

233400 (2006 FK37)          Discovered 2006-Mar-24 by CSS at Catalina
Reference: 20100228/Numbers.arcLast Updated: 2010-03-03

[ show close-approach data ]
Alternate Designations
 2006 FK37 = 2003 TK57 
Ephemeris | Orbit Diagram | Orbital Elements | Mission Design | Physical Parameters | Discovery Circumstances | Close-Approach Data ]
ABOUT SSD CREDITS/AWARDS PRIVACY/COPYRIGHT GLOSSARY LINKS
FirstGov 2021-Mar-02 21:51 UT
(server date/time)  
NASA Home Page
Site Manager:   Ryan S. Park
Webmaster  Alan B. Chamberlin